Temp
20 20 20 20 20 20 20 20 20 20 20 20 20 19 19 19 19 19 19 19 19 18 18 18 18 18 18 18 18 18 18 18 18 18 17 17 17 17 17 17 17 18 18 18 18 18 18 18 18 18 18 19 19 19 20 20 20 19 19 19 19 19 19
20 20 20 20 20 20 20 20 20 19 19 19 19 19 19 19 19 19 19 19 19 19 18 18 18 18 18 18 18 18 18 18 18 18 18 18 17 17 17 17 17 18 18 18 18 18 18 18 18 18 18 19 19 20 20 20 19 19 19 19 19 20 20
20 20 20 20 20 20 20 20 20 20 19 19 19 19 19 19 19 19 19 19 19 19 18 18 18 18 18 18 18 18 19 18 18 18 18 18 18 18 17 17 17 18 18 18 18 18 18 18 18 18 18 18 19 19 20 20 19 19 19 19 19 20 20
20 20 20 20 20 20 20 20 20 19 19 19 19 19 19 19 19 19 19 18 18 18 18 19 19 19 18 18 18 18 19 18 18 18 18 18 18 18 18 18 17 18 18 18 18 18 18 18 18 18 18 18 19 19 20 20 19 19 19 19 19 20 20
20 20 20 20 20 19 19 19 19 19 19 19 19 19 19 19 19 18 18 18 18 18 18 19 19 19 19 18 18 18 18 18 18 18 18 18 18 18 18 18 18 18 18 18 18 18 19 18 18 18 18 18 19 19 19 20 19 19 19 19 19 20 20
20 20 20 20 20 19 19 19 19 19 19 18 18 18 18 18 18 18 18 18 18 18 18 19 19 19 19 19 19 18 18 18 18 18 18 18 18 18 19 18 18 18 18 18 18 19 19 19 19 18 18 18 19 19 19 20 20 19 19 19 19 20 20
21 20 20 20 20 20 19 19 19 19 19 18 18 18 18 18 18 18 18 18 18 18 18 19 18 19 19 19 19 19 19 19 18 18 18 18 18 19 19 19 18 18 18 18 18 19 19 19 19 19 18 19 19 19 19 20 20 19 19 19 19 19 19
21 21 21 20 20 20 19 19 19 19 19 19 18 18 18 18 18 18 18 18 18 18 18 18 18 18 19 19 19 19 19 19 18 18 18 18 19 19 19 19 19 19 18 18 18 19 19 19 19 19 19 19 19 19 19 19 19 19 19 19 19 19 19
21 20 20 20 20 20 19 19 19 19 19 19 18 18 18 18 18 18 18 18 18 18 18 18 18 18 18 19 19 19 19 19 19 19 18 18 18 19 19 19 19 19 19 18 18 18 19 19 19 19 19 19 19 19 19 19 19 19 19 19 19 19 19
21 20 20 20 20 20 20 19 19 19 19 18 18 18 18 18 18 18 18 17 17 18 18 18 18 18 18 18 18 18 18 18 19 19 19 19 18 19 19 19 19 19 19 19 19 19 19 19 19 19 19 19 19 19 19 20 20 20 19 19 19 19 20
21 20 20 20 20 20 19 19 19 19 18 18 18 18 17 17 17 17 17 17 17 17 17 17 18 18 18 18 18 18 18 18 18 18 19 19 19 19 18 18 18 19 19 19 19 19 19 19 19 19 19 19 19 19 19 20 20 20 20 19 19 20 20
21 20 20 19 19 19 19 19 19 19 18 18 18 18 17 17 17 17 17 17 17 17 17 17 17 17 18 18 18 18 18 18 18 18 18 18 19 19 19 18 18 18 19 19 19 19 19 19 19 19 19 19 19 19 19 20 20 20 20 19 19 20 20
21 20 20 19 19 19 19 19 19 19 19 18 18 18 17 17 17 17 17 16 16 16 17 17 17 17 17 17 18 18 18 18 18 18 18 18 18 19 19 19 18 19 19 19 19 19 19 19 19 19 19 19 19 19 19 20 20 19 19 20 20 20 20
20 20 19 19 19 19 19 19 19 19 19 18 18 17 17 17 17 16 16 16 16 16 16 16 17 17 17 17 17 17 17 18 18 18 18 18 18 19 19 19 19 19 19 19 19 19 19 19 19 19 19 19 19 19 19 19 19 19 20 20 20 20 20
20 19 19 19 19 19 19 19 19 19 18 18 18 17 17 17 17 16 16 16 16 16 16 16 16 17 17 17 17 17 17 17 17 17 18 18 18 19 19 19 19 19 19 19 19 19 19 19 19 19 19 19 19 19 19 19 19 19 20 20 20 20 20
19 19 19 19 19 19 19 19 19 19 18 18 17 17 17 17 16 16 16 16 16 16 16 16 16 16 16 16 16 17 17 17 17 17 17 18 18 18 18 18 18 19 19 19 19 19 19 19 19 19 19 19 19 19 19 19 19 19 20 20 20 20 20
20 20 20 20 20 20 20 19 19 18 18 18 17 17 17 16 16 16 16 16 16 15 15 15 15 15 16 16 16 16 17 17 17 17 17 17 18 18 18 18 18 18 19 19 19 19 19 19 19 19 18 19 19 19 19 19 19 20 20 20 20 20 20
20 20 20 20 20 20 20 19 19 18 18 17 17 17 16 16 16 16 16 15 15 15 15 15 15 15 15 15 15 16 16 17 17 17 17 17 17 18 18 18 18 18 18 18 18 19 19 19 19 19 19 19 19 19 19 19 20 20 20 20 20 20 20
21 21 21 21 20 20 20 19 19 18 18 17 17 17 16 16 16 15 15 15 15 15 15 15 15 15 15 15 15 15 15 16 16 17 17 17 17 17 17 18 18 18 18 18 18 18 18 18 18 19 19 19 19 19 19 19 19 20 20 20 20 20 20
21 21 21 21 21 20 20 19 18 18 17 17 17 16 16 16 16 15 15 15 15 15 15 15 15 15 14 14 14 14 15 15 16 16 17 17 17 17 17 17 17 18 18 18 18 18 18 18 18 18 19 19 19 19 19 19 19 19 20 20 20 20 20
21 21 21 21 21 20 20 19 18 18 17 17 17 16 16 16 15 15 15 15 14 14 15 14 14 14 14 14 15 15 15 15 16 16 17 17 17 17 17 17 17 17 17 17 17 17 18 18 18 18 18 18 18 18 19 19 19 19 19 20 20 20 20
22 22 21 21 21 21 20 19 18 17 17 17 16 16 16 15 15 15 15 14 14 14 14 14 14 14 14 14 15 16 16 16 17 17 17 17 17 17 18 17 17 18 17 17 17 17 17 18 18 18 18 18 18 18 19 19 19 19 19 19 20 20 20
23 22 22 22 21 21 20 19 18 17 17 17 16 16 16 15 15 15 14 14 14 14 13 13 13 13 13 14 15 16 16 16 16 17 17 17 18 18 18 18 18 18 17 18 18 18 18 18 18 18 18 18 18 18 18 19 19 19 19 19 19 19 20
22 22 22 21 21 20 19 18 17 17 17 17 16 16 15 15 15 14 14 14 13 13 13 13 13 12 13 13 14 15 16 16 16 15 16 16 16 17 17 18 18 18 18 17 18 18 18 18 18 18 17 17 17 18 18 18 18 19 19 19 19 19 19
22 22 21 21 21 20 19 18 17 17 17 17 16 16 15 15 15 14 14 13 13 12 12 12 12 12 12 13 14 15 16 16 15 14 14 14 14 14 15 16 16 17 17 17 17 17 18 17 17 17 17 17 17 17 18 18 18 18 18 19 19 19 19
22 21 21 20 20 19 18 18 18 17 17 16 16 15 15 15 14 14 13 13 13 13 12 12 12 12 12 12 13 14 14 15 15 14 13 13 13 13 13 14 14 15 15 16 16 16 17 16 16 16 17 17 18 17 17 17 18 18 18 18 18 18 18
22 21 21 20 19 18 18 18 18 17 16 16 15 15 15 15 14 13 13 13 13 13 12 12 12 12 12 12 13 13 13 13 14 14 13 12 12 13 13 14 14 14 14 15 15 15 15 16 16 16 16 17 17 17 17 17 17 18 18 18 18 18 18
21 20 20 19 19 18 18 18 18 17 16 16 15 15 15 15 14 13 13 13 13 13 13 12 12 13 13 13 14 13 12 12 13 13 13 13 12 13 13 14 14 14 14 15 15 15 15 15 15 16 16 16 16 16 16 17 17 17 17 17 17 18 17
21 20 19 19 18 18 18 18 17 17 16 15 15 15 15 14 14 13 13 13 13 13 13 13 13 14 14 14 14 13 13 13 13 13 14 13 13 13 13 14 14 14 14 15 15 16 16 15 16 16 16 16 16 16 16 16 16 17 17 17 17 17 17
20 20 19 19 18 18 18 17 17 16 16 15 15 15 15 14 14 13 13 13 13 13 13 13 14 14 14 14 14 13 13 13 13 13 14 14 13 13 13 14 14 14 14 15 15 15 16 16 16 16 16 16 16 16 16 15 15 16 16 16 17 17 17
20 20 19 19 18 18 18 17 17 16 15 15 15 15 15 14 13 13 13 13 13 13 13 14 14 14 14 14 13 12 12 12 12 12 14 14 14 13 13 14 14 14 14 14 15 15 15 15 15 15 15 15 15 15 15 15 15 15 15 16 17 17 17
19 19 19 19 18 18 17 17 16 16 15 15 15 15 14 13 13 13 13 13 14 14 14 14 15 15 13 13 12 12 12 12 12 13 13 14 14 14 14 14 14 14 14 14 14 14 14 14 14 14 14 15 15 15 14 14 14 14 15 15 15 16 16
19 19 19 19 18 18 17 17 16 16 15 15 15 14 14 13 13 13 13 14 14 14 15 15 14 14 13 12 12 12 12 12 12 13 13 13 13 13 13 14 14 14 14 14 14 13 13 13 13 13 13 13 13 13 13 13 13 14 14 14 14 14 15
19 19 19 18 18 18 17 17 16 16 15 15 15 14 14 13 13 13 13 14 14 14 15 14 14 13 13 13 12 12 12 13 13 12 12 12 13 13 13 13 14 14 14 14 14 14 14 13 13 13 12 12 12 13 13 13 13 13 13 13 13 14 14
19 19 19 18 18 17 17 17 16 16 15 15 14 14 14 13 13 13 13 14 14 14 14 14 13 12 12 13 13 13 13 13 12 12 12 12 13 13 13 13 13 14 14 14 14 14 14 14 14 13 13 12 12 12 12 12 12 12 12 13 14 14 14
19 19 18 18 17 17 17 16 16 15 15 14 14 14 14 13 13 13 13 13 14 14 14 14 13 13 13 13 13 13 13 13 13 13 13 13 13 13 13 13 13 13 14 13 13 13 13 14 13 13 13 13 13 12 12 12 12 11 12 13 13 14 14
19 18 18 17 17 17 16 16 15 15 15 15 14 14 13 13 13 13 13 13 13 13 13 13 13 13 13 13 14 14 14 13 13 13 13 13 13 13 13 13 13 13 13 13 13 13 13 13 13 13 13 13 13 13 12 12 12 12 12 12 13 13 13
19 18 18 17 17 17 16 16 16 15 15 15 14 14 14 13 13 13 14 13 13 13 13 13 13 13 13 14 14 14 13 13 13 13 13 13 13 13 13 14 14 13 12 12 12 12 12 12 12 12 12 12 12 12 12 12 12 12 12 12 12 12 12
Height
1505 1506 1507 1508 1510 1510 1512 1513 1514 1516 1516 1516 1517 1518 1519 1519 1519 1520 1521 1522 1523 1524 1525 1527 1530 1531 1530 1530 1530 1531 1532 1533 1534 1534 1535 1537 1538 1539 1540 1541 1542 1543 1544 1546 1548 1550 1552 1554 1555 1556 1557 1558 1560 1561 1562 1562 1564 1565 1565 1566 1566 1567 1567
1505 1506 1507 1508 1509 1510 1511 1513 1514 1515 1516 1516 1517 1517 1518 1518 1518 1519 1520 1521 1522 1523 1524 1525 1528 1528 1528 1528 1528 1529 1530 1531 1532 1533 1534 1535 1536 1537 1538 1539 1540 1542 1543 1544 1546 1548 1550 1552 1553 1554 1555 1557 1558 1559 1560 1561 1562 1563 1564 1564 1565 1565 1565
1505 1506 1507 1508 1509 1510 1511 1512 1514 1515 1516 1516 1517 1517 1518 1518 1518 1518 1519 1520 1521 1522 1523 1524 1525 1526 1526 1526 1526 1527 1528 1530 1531 1531 1532 1533 1534 1535 1536 1537 1538 1540 1541 1543 1544 1546 1548 1550 1551 1552 1554 1555 1556 1557 1558 1559 1560 1561 1562 1563 1563 1563 1563
1505 1506 1507 1508 1509 1510 1512 1512 1514 1514 1515 1517 1517 1518 1518 1518 1518 1518 1518 1519 1520 1521 1521 1522 1523 1523 1524 1524 1525 1526 1527 1529 1530 1530 1531 1532 1533 1534 1535 1536 1537 1538 1540 1541 1543 1544 1546 1548 1549 1550 1552 1552 1554 1555 1556 1557 1558 1560 1560 1561 1561 1561 1562
1504 1505 1507 1508 1509 1510 1511 1512 1514 1514 1515 1516 1516 1517 1517 1517 1517 1517 1518 1518 1519 1520 1520 1520 1521 1521 1522 1523 1524 1525 1526 1528 1529 1529 1530 1531 1532 1533 1534 1535 1536 1537 1538 1539 1541 1543 1544 1545 1547 1548 1550 1550 1552 1553 1554 1555 1557 1558 1558 1559 1559 1559 1560
1504 1505 1506 1507 1508 1510 1511 1512 1513 1514 1515 1515 1515 1516 1516 1516 1517 1516 1517 1518 1518 1519 1519 1519 1520 1520 1521 1522 1523 1525 1525 1527 1527 1528 1529 1530 1530 1531 1532 1533 1534 1535 1537 1538 1540 1541 1542 1544 1545 1546 1548 1549 1550 1551 1552 1553 1555 1556 1556 1557 1557 1558 1558
1503 1504 1506 1507 1508 1510 1511 1512 1513 1513 1514 1515 1515 1516 1516 1516 1516 1516 1517 1518 1518 1518 1518 1518 1519 1520 1521 1521 1522 1523 1524 1525 1526 1527 1528 1528 1529 1530 1531 1532 1533 1534 1535 1536 1538 1539 1541 1542 1543 1544 1546 1547 1548 1549 1550 1551 1553 1554 1554 1555 1556 1556 1557
1503 1504 1505 1507 1508 1510 1511 1511 1513 1513 1514 1514 1514 1515 1515 1516 1516 1517 1517 1518 1517 1518 1518 1518 1519 1519 1520 1520 1521 1522 1522 1524 1525 1525 1526 1527 1528 1529 1530 1531 1532 1533 1534 1534 1536 1537 1539 1540 1542 1543 1544 1545 1546 1547 1548 1549 1550 1552 1553 1553 1554 1555 1556
1504 1505 1506 1508 1508 1509 1511 1511 1513 1513 1513 1514 1514 1514 1515 1515 1516 1517 1517 1517 1517 1517 1518 1518 1518 1519 1519 1519 1520 1520 1521 1522 1523 1523 1524 1525 1526 1528 1529 1530 1531 1532 1533 1533 1534 1535 1536 1538 1540 1541 1542 1543 1544 1545 1546 1547 1548 1550 1551 1551 1552 1553 1554
1503 1505 1505 1507 1508 1509 1510 1511 1512 1513 1513 1514 1514 1515 1515 1515 1516 1516 1516 1517 1517 1517 1517 1517 1518 1518 1518 1518 1519 1519 1519 1520 1521 1522 1523 1524 1525 1526 1527 1528 1529 1530 1531 1532 1533 1533 1534 1536 1537 1539 1540 1541 1542 1543 1544 1545 1546 1547 1548 1549 1550 1551 1552
1503 1504 1505 1507 1508 1509 1510 1511 1512 1512 1513 1514 1514 1514 1515 1515 1515 1515 1515 1516 1516 1516 1516 1516 1517 1517 1517 1517 1518 1518 1518 1518 1519 1520 1521 1522 1523 1524 1525 1526 1527 1527 1528 1530 1531 1532 1533 1534 1535 1536 1537 1538 1540 1541 1542 1543 1544 1545 1546 1547 1548 1549 1550
1502 1503 1504 1506 1507 1508 1510 1511 1512 1512 1513 1513 1514 1514 1514 1514 1515 1514 1515 1515 1515 1515 1515 1515 1515 1515 1516 1516 1516 1517 1517 1517 1517 1518 1519 1520 1521 1522 1523 1523 1524 1525 1526 1527 1528 1530 1530 1531 1532 1533 1534 1536 1537 1539 1540 1541 1542 1543 1544 1545 1546 1546 1547
1501 1503 1504 1506 1507 1508 1509 1510 1511 1512 1513 1513 1514 1514 1514 1514 1514 1514 1514 1514 1513 1513 1513 1513 1514 1514 1514 1515 1515 1515 1515 1515 1515 1516 1516 1517 1518 1519 1520 1521 1522 1522 1523 1524 1526 1527 1528 1529 1530 1531 1532 1533 1535 1536 1537 1539 1540 1541 1542 1543 1543 1544 1545
1500 1502 1504 1505 1507 1508 1509 1510 1511 1512 1512 1513 1513 1514 1514 1514 1514 1513 1513 1513 1513 1512 1512 1512 1512 1512 1513 1513 1513 1514 1514 1514 1514 1514 1514 1515 1515 1517 1518 1519 1520 1520 1521 1522 1523 1524 1525 1527 1528 1529 1530 1531 1532 1533 1535 1536 1537 1538 1539 1540 1541 1542 1543
1499 1501 1503 1505 1506 1507 1509 1510 1511 1511 1512 1513 1513 1513 1513 1513 1513 1513 1512 1512 1512 1512 1511 1511 1511 1511 1511 1511 1512 1512 1512 1512 1512 1512 1512 1512 1513 1514 1516 1516 1517 1518 1519 1520 1521 1522 1523 1524 1525 1526 1528 1529 1530 1531 1532 1533 1534 1535 1537 1538 1539 1540 1540
1498 1500 1502 1503 1505 1507 1508 1509 1510 1511 1512 1512 1512 1513 1512 1512 1512 1511 1511 1511 1511 1511 1510 1510 1510 1510 1510 1510 1510 1510 1510 1510 1510 1510 1510 1511 1511 1513 1513 1514 1515 1516 1517 1518 1519 1520 1521 1522 1523 1524 1525 1526 1527 1529 1530 1530 1531 1533 1534 1535 1536 1537 1538
1496 1499 1501 1502 1504 1506 1507 1509 1509 1510 1511 1511 1512 1512 1512 1511 1511 1510 1510 1510 1510 1509 1509 1509 1509 1509 1508 1508 1508 1508 1508 1508 1508 1508 1508 1509 1510 1511 1511 1512 1513 1513 1514 1515 1516 1518 1519 1520 1520 1521 1523 1524 1525 1526 1527 1528 1529 1530 1532 1533 1533 1534 1535
1494 1497 1499 1502 1504 1505 1506 1507 1508 1509 1510 1511 1511 1511 1511 1510 1509 1509 1509 1509 1509 1508 1508 1508 1508 1508 1507 1507 1507 1507 1506 1506 1506 1506 1506 1507 1508 1508 1509 1509 1510 1511 1512 1513 1514 1515 1516 1517 1518 1519 1520 1521 1522 1523 1524 1525 1527 1528 1529 1530 1531 1532 1532
1493 1496 1498 1501 1502 1504 1505 1506 1507 1509 1509 1510 1510 1510 1509 1509 1508 1508 1508 1508 1508 1507 1507 1507 1507 1506 1506 1506 1506 1505 1505 1505 1504 1504 1504 1504 1505 1506 1506 1507 1507 1508 1509 1510 1511 1512 1513 1514 1515 1516 1517 1518 1519 1520 1521 1523 1524 1525 1526 1527 1528 1529 1529
1491 1495 1497 1500 1501 1503 1504 1506 1507 1508 1508 1509 1509 1509 1508 1508 1508 1507 1507 1507 1506 1506 1505 1505 1505 1505 1504 1504 1504 1503 1503 1503 1502 1502 1502 1502 1502 1503 1503 1504 1505 1506 1506 1507 1508 1509 1509 1511 1512 1513 1514 1515 1516 1517 1519 1520 1521 1522 1523 1524 1525 1526 1526
1490 1494 1496 1498 1500 1502 1503 1505 1506 1507 1508 1508 1508 1508 1508 1507 1507 1507 1506 1506 1505 1505 1504 1504 1503 1503 1502 1502 1501 1500 1500 1500 1499 1499 1500 1499 1500 1500 1501 1502 1502 1503 1504 1504 1505 1505 1506 1507 1508 1509 1511 1512 1513 1514 1515 1517 1518 1519 1519 1520 1521 1522 1523
1489 1492 1495 1497 1499 1501 1503 1504 1505 1506 1507 1507 1507 1507 1507 1507 1506 1506 1505 1505 1504 1504 1503 1502 1502 1501 1500 1499 1499 1498 1498 1497 1497 1496 1497 1497 1497 1498 1498 1499 1499 1500 1501 1501 1502 1502 1503 1504 1505 1506 1507 1508 1510 1510 1511 1513 1514 1515 1516 1517 1518 1519 1520
1489 1492 1494 1497 1499 1501 1502 1504 1505 1506 1506 1506 1506 1506 1506 1506 1505 1505 1504 1504 1503 1503 1502 1501 1500 1500 1499 1498 1497 1497 1496 1496 1495 1494 1494 1494 1494 1495 1495 1496 1496 1496 1497 1498 1498 1499 1500 1500 1502 1503 1504 1505 1506 1507 1508 1509 1510 1511 1513 1514 1515 1515 1516
1489 1492 1494 1496 1498 1500 1501 1503 1504 1505 1506 1505 1506 1506 1505 1505 1504 1504 1503 1503 1502 1502 1501 1500 1500 1499 1498 1497 1496 1496 1495 1495 1494 1493 1492 1492 1492 1492 1492 1492 1493 1493 1493 1494 1495 1495 1496 1497 1498 1500 1501 1502 1503 1503 1504 1505 1507 1508 1509 1510 1511 1512 1513
1489 1491 1493 1495 1497 1499 1500 1502 1503 1504 1505 1505 1505 1505 1505 1504 1504 1503 1502 1502 1501 1501 1500 1500 1499 1498 1497 1497 1496 1495 1494 1494 1493 1492 1491 1491 1490 1490 1489 1489 1489 1490 1490 1490 1491 1492 1493 1495 1496 1497 1497 1498 1499 1500 1501 1502 1503 1504 1505 1506 1507 1508 1509
1488 1490 1492 1494 1496 1498 1499 1501 1502 1503 1504 1504 1504 1504 1504 1503 1503 1502 1502 1501 1501 1500 1500 1500 1499 1497 1497 1496 1495 1494 1494 1493 1492 1491 1490 1489 1489 1489 1488 1488 1487 1487 1487 1487 1488 1489 1490 1492 1493 1494 1494 1495 1496 1497 1498 1498 1499 1500 1501 1502 1503 1504 1504
1487 1490 1492 1494 1495 1497 1498 1500 1501 1502 1502 1503 1503 1503 1503 1502 1502 1501 1501 1501 1500 1500 1499 1499 1498 1497 1496 1495 1494 1494 1493 1492 1491 1490 1489 1488 1488 1488 1487 1487 1486 1486 1486 1486 1486 1487 1488 1489 1490 1491 1492 1493 1493 1494 1494 1495 1495 1496 1497 1497 1499 1499 1500
1486 1488 1491 1493 1494 1496 1498 1499 1500 1501 1501 1502 1502 1502 1502 1501 1501 1501 1501 1500 1500 1500 1499 1498 1497 1496 1496 1495 1494 1493 1492 1491 1490 1489 1488 1488 1487 1486 1486 1486 1485 1485 1485 1485 1485 1486 1486 1487 1488 1489 1490 1490 1490 1491 1491 1491 1492 1493 1493 1494 1495 1495 1496
1485 1487 1489 1491 1493 1495 1497 1498 1499 1500 1500 1501 1501 1501 1501 1501 1501 1501 1501 1500 1500 1499 1499 1498 1497 1496 1495 1494 1493 1493 1492 1491 1490 1489 1488 1487 1486 1486 1485 1485 1484 1484 1484 1484 1484 1484 1485 1485 1486 1487 1488 1488 1488 1488 1488 1489 1489 1489 1490 1490 1491 1491 1492
1484 1487 1488 1490 1493 1494 1496 1497 1498 1499 1499 1500 1500 1501 1500 1500 1500 1500 1500 1500 1499 1499 1498 1497 1496 1496 1495 1494 1493 1492 1492 1491 1490 1489 1488 1487 1486 1485 1485 1485 1484 1483 1483 1483 1483 1483 1483 1484 1484 1485 1485 1486 1486 1486 1487 1487 1486 1486 1486 1487 1487 1488 1488
1484 1486 1488 1490 1492 1493 1495 1496 1497 1498 1499 1499 1500 1500 1500 1500 1500 1500 1500 1500 1499 1498 1498 1497 1497 1496 1495 1494 1493 1493 1492 1491 1491 1490 1489 1488 1487 1486 1486 1485 1484 1483 1483 1482 1482 1482 1483 1483 1483 1483 1484 1484 1485 1485 1485 1484 1484 1484 1484 1484 1484 1484 1484
1484 1486 1487 1489 1491 1492 1494 1495 1496 1497 1498 1498 1499 1500 1500 1500 1500 1500 1500 1500 1499 1498 1498 1497 1497 1496 1495 1494 1494 1493 1492 1492 1491 1490 1489 1489 1488 1488 1487 1486 1485 1484 1483 1482 1482 1482 1482 1482 1483 1483 1483 1483 1483 1484 1483 1483 1483 1483 1483 1483 1482 1482 1482
1483 1484 1486 1488 1490 1491 1492 1493 1495 1496 1497 1497 1498 1499 1499 1500 1500 1500 1500 1500 1499 1499 1498 1497 1497 1496 1495 1495 1494 1494 1493 1493 1492 1491 1491 1490 1490 1489 1489 1488 1486 1485 1484 1483 1482 1482 1482 1482 1482 1483 1483 1483 1483 1483 1483 1483 1483 1483 1483 1482 1482 1482 1482
1481 1483 1486 1487 1489 1490 1492 1493 1494 1495 1496 1497 1498 1498 1499 1499 1500 1500 1500 1500 1500 1499 1498 1498 1497 1496 1496 1495 1495 1494 1494 1494 1493 1493 1493 1492 1492 1491 1490 1489 1488 1487 1485 1484 1483 1483 1483 1483 1483 1483 1483 1483 1484 1484 1484 1484 1484 1484 1484 1483 1483 1483 1482
1481 1483 1485 1487 1488 1490 1491 1492 1494 1495 1496 1497 1497 1497 1498 1499 1500 1500 1501 1500 1500 1499 1499 1498 1497 1497 1496 1496 1495 1495 1495 1495 1495 1495 1494 1494 1493 1493 1492 1491 1490 1489 1488 1486 1486 1485 1485 1485 1484 1484 1485 1485 1485 1486 1486 1486 1486 1486 1486 1486 1486 1485 1485
1480 1483 1484 1486 1488 1489 1491 1492 1493 1494 1495 1496 1496 1496 1497 1498 1500 1501 1501 1501 1500 1500 1499 1499 1498 1497 1497 1497 1496 1497 1497 1496 1496 1496 1496 1496 1495 1495 1494 1493 1492 1492 1490 1489 1489 1489 1489 1488 1488 1488 1488 1487 1487 1488 1488 1487 1488 1489 1490 1490 1490 1491 1490
1480 1482 1484 1486 1487 1489 1490 1491 1492 1493 1494 1495 1496 1496 1496 1498 1499 1501 1501 1501 1501 1500 1500 1500 1499 1498 1498 1498 1498 1498 1498 1498 1498 1498 1498 1498 1498 1497 1496 1495 1495 1494 1494 1493 1493 1493 1493 1492 1492 1492 1492 1492 1491 1490 1491 1491 1493 1494 1495 1495 1496 1496 1496
1479 1481 1483 1485 1487 1488 1489 1490 1491 1492 1493 1494 1495 1496 1496 1497 1499 1500 1501 1501 1501 1501 1501 1500 1500 1500 1499 1499 1499 1499 1500 1500 1500 1500 1500 1500 1500 1500 1499 1498 1497 1496 1497 1497 1497 1497 1496 1496 1496 1496 1496 1496 1495 1495 1495 1497 1498 1499 1499 1500 1500 1500 1500
Wind_Speed
11 11 11 12 12 13 14 15 16 17 18 19 19 19 20 19 18 19 21 21 20 18 15 11 10 11 11 10 9 9 8 8 8 9 10 12 13 14 15 17 19 20 22 23 24 23 22 20 20 20 20 20 21 20 18 18 19 20 19 18 18 17 16
10 9 9 9 9 9 10 11 12 14 14 16 16 15 15 16 17 19 20 20 20 17 13 11 10 11 10 9 10 9 9 9 9 10 11 12 13 14 15 16 18 19 21 23 23 23 22 20 19 19 19 20 20 19 19 19 19 20 19 18 17 17 16
10 8 8 7 7 7 7 6 7 8 10 12 13 12 12 13 14 15 16 17 16 14 12 11 11 12 12 12 12 11 10 10 11 11 11 12 13 14 14 15 17 18 20 22 23 23 21 21 20 19 19 20 20 20 20 20 20 20 19 18 17 17 16
10 8 8 8 8 8 7 6 5 5 6 8 9 9 9 10 11 11 11 13 14 13 13 12 12 12 13 13 13 12 11 11 11 11 12 12 12 13 15 16 17 17 18 20 22 22 21 21 21 20 20 20 21 21 21 21 20 18 17 17 18 17 16
11 9 9 9 8 7 6 6 5 5 5 5 6 6 6 7 8 9 9 11 13 13 13 13 13 13 13 14 13 13 12 12 12 12 12 12 12 13 15 16 17 17 18 18 20 21 21 21 21 20 20 20 21 21 21 21 19 17 15 16 17 18 17
13 11 10 10 9 7 7 7 7 6 6 5 5 5 5 5 6 6 8 10 11 12 13 13 13 13 13 14 14 14 14 14 14 14 13 13 13 14 15 16 17 17 17 17 18 19 20 20 20 19 19 20 21 21 21 20 19 17 15 15 16 16 16
13 11 10 10 10 9 9 9 8 6 5 5 5 5 5 5 5 6 7 9 11 13 13 14 13 13 13 14 15 16 16 16 16 16 16 15 15 15 15 16 17 18 18 18 18 19 19 20 20 19 20 20 21 20 19 19 19 17 16 16 16 16 15
12 11 10 10 11 10 9 9 7 4 3 3 4 4 4 4 4 5 6 8 9 11 12 13 13 13 14 15 16 18 18 18 18 18 18 17 16 15 15 16 17 18 18 19 20 20 20 21 20 20 20 20 20 20 19 19 19 18 17 16 16 16 16
13 12 12 11 10 9 8 7 6 4 3 3 4 4 4 4 4 5 6 7 7 8 9 10 10 11 13 14 16 18 18 19 19 19 19 18 18 17 16 15 16 17 18 19 19 20 21 21 21 21 21 20 20 20 19 19 19 19 19 18 17 17 17
15 14 13 12 10 9 7 6 5 4 3 3 4 4 5 5 6 7 8 9 10 11 11 11 11 11 11 12 13 16 18 19 19 20 20 19 19 19 18 16 16 17 18 19 18 19 19 20 20 21 21 21 20 20 21 20 20 20 20 19 18 18 17
18 16 15 14 12 10 9 7 5 4 3 3 3 4 5 6 7 8 9 10 11 12 12 13 12 11 11 11 10 12 15 17 18 19 19 20 20 20 19 18 18 18 19 19 19 19 19 19 19 20 21 22 22 21 22 22 21 21 20 19 19 19 18
21 19 18 16 14 12 10 8 6 5 4 3 3 5 6 7 8 9 10 10 11 12 12 12 13 12 12 11 11 10 11 13 14 15 16 18 19 20 20 19 19 19 20 20 20 20 20 20 20 20 21 22 22 22 23 23 22 21 20 20 19 19 19
22 20 19 18 16 14 12 10 7 6 4 3 4 5 7 8 9 10 10 11 12 12 12 12 13 13 12 12 11 11 11 11 12 13 15 17 18 19 20 20 20 20 20 21 21 21 21 21 21 20 21 21 21 22 23 24 24 23 22 21 20 20 19
21 20 19 19 17 15 14 11 8 7 5 4 5 6 7 8 9 9 10 11 11 11 12 13 13 13 13 13 12 12 11 11 11 12 14 16 18 18 18 19 21 21 21 22 23 23 22 22 22 21 21 20 20 20 21 23 24 25 24 22 22 21 21
22 22 21 21 19 16 14 11 9 7 5 6 7 7 8 9 9 9 9 10 10 11 11 12 13 13 13 13 13 13 13 13 12 12 13 14 17 18 18 18 18 20 22 23 24 23 23 23 23 23 23 22 21 21 21 22 24 25 24 23 23 23 23
23 23 23 21 19 17 14 11 9 7 7 7 7 7 8 9 10 10 10 10 11 11 11 11 12 13 13 14 14 15 15 15 15 14 13 13 14 16 18 18 18 18 20 23 25 24 24 24 25 24 24 24 23 23 23 23 24 24 24 24 23 23 24
25 25 24 21 19 17 14 11 10 9 8 8 7 8 9 10 11 11 11 11 10 11 11 11 11 11 12 13 14 16 16 16 16 16 16 15 15 15 16 18 20 20 20 22 24 26 26 25 26 26 25 25 25 25 25 25 25 25 25 25 24 24 25
27 25 24 22 19 16 14 12 11 10 9 8 7 8 9 10 11 12 11 10 9 10 10 11 11 11 12 12 13 14 16 17 18 18 18 18 17 16 16 17 19 21 22 22 23 25 26 27 27 27 27 27 27 27 26 26 25 25 25 26 26 26 26
28 26 23 21 18 15 13 12 11 10 9 7 7 8 9 10 11 11 10 9 9 10 11 12 12 12 12 12 13 14 15 16 18 18 19 20 19 19 19 19 19 20 21 22 23 24 26 27 28 29 29 30 30 29 28 27 26 25 25 26 27 27 28
27 25 23 19 17 14 12 11 10 9 8 7 7 8 9 10 9 9 9 9 10 11 12 12 12 12 13 14 14 15 15 17 18 19 19 20 21 21 21 21 21 21 21 21 22 24 26 27 28 30 31 32 32 31 30 28 27 26 26 27 28 28 29
27 25 22 19 16 14 12 11 10 9 7 6 6 7 8 7 6 7 8 8 9 11 11 12 13 14 15 16 17 17 17 17 18 19 19 20 21 22 22 23 23 24 23 22 21 22 24 26 28 30 31 31 32 33 33 31 30 28 28 29 29 29 29
26 24 21 17 14 12 10 10 9 7 5 4 5 6 5 5 5 6 8 9 9 11 11 12 14 15 16 17 17 17 17 17 17 18 18 18 19 21 22 23 24 24 25 25 25 24 24 25 26 28 30 30 31 33 34 34 34 33 32 30 31 31 31
22 20 18 15 11 9 9 9 8 6 4 4 4 4 4 4 6 8 8 9 9 11 12 13 14 15 15 15 15 15 15 15 16 16 16 17 17 19 21 23 24 25 25 25 26 27 26 25 25 25 27 28 29 31 33 34 34 35 34 33 31 31 31
18 17 16 14 11 11 11 10 8 6 4 4 4 3 3 5 8 9 9 8 9 10 11 12 11 11 12 13 13 13 13 12 12 13 14 15 16 16 18 20 22 25 25 25 26 26 26 26 25 24 24 25 26 28 30 32 32 33 34 34 34 32 31
17 17 15 13 11 11 12 10 8 5 4 4 4 3 5 7 8 8 7 6 7 9 8 8 9 10 10 10 11 11 10 10 9 10 11 12 13 14 15 16 17 19 21 23 23 24 24 24 23 22 23 24 25 26 28 29 30 31 32 33 34 35 34
16 16 15 14 12 12 11 9 6 4 4 5 4 4 6 7 7 6 5 4 5 7 7 8 11 10 8 8 9 9 9 10 9 9 10 10 10 10 11 13 13 13 16 18 18 19 21 22 21 21 22 23 24 25 26 27 28 29 30 32 33 34 35
16 14 14 14 15 13 11 8 6 5 5 5 4 4 6 6 5 4 4 4 4 6 8 10 11 9 8 8 8 8 9 10 9 9 9 9 9 9 9 10 11 10 12 14 13 13 15 18 19 19 20 20 22 24 24 25 25 26 27 29 31 32 34
17 16 16 16 15 13 10 8 7 6 6 4 3 5 6 5 4 3 4 4 4 7 10 11 10 8 8 8 8 8 8 9 8 8 9 8 9 9 9 9 9 8 9 10 10 9 11 12 14 16 18 19 20 21 22 23 24 24 25 26 27 29 31
19 18 18 17 15 12 9 7 7 6 5 4 4 5 5 4 3 2 3 4 5 7 9 9 8 7 8 8 8 7 7 8 8 8 9 9 8 8 8 9 8 8 8 9 8 10 13 13 13 14 17 18 18 19 21 23 24 24 24 24 25 26 28
19 19 18 16 13 10 8 7 7 6 5 4 4 5 4 3 2 3 4 5 5 5 6 6 6 7 8 8 7 7 7 8 9 9 9 9 8 6 6 7 8 7 7 8 8 9 12 13 13 13 15 17 18 19 21 23 23 24 24 23 23 24 26
20 19 17 15 12 9 8 8 6 5 5 5 5 5 3 2 2 4 5 4 3 3 3 4 5 6 7 7 7 7 8 9 10 10 8 9 9 8 7 7 8 7 4 5 7 8 9 9 10 10 11 14 15 17 18 20 21 21 21 19 18 19 21
20 18 17 15 13 11 9 8 7 6 5 5 5 4 3 2 3 4 4 3 2 2 2 3 4 4 5 6 7 8 9 10 10 9 8 9 10 10 11 11 11 10 8 5 2 3 5 6 7 8 9 10 11 12 13 14 15 14 14 13 12 12 12
21 19 17 15 12 11 9 8 8 7 6 6 5 4 3 2 3 3 2 1 2 2 2 2 3 3 5 7 8 9 9 9 9 9 9 10 11 12 13 13 14 14 14 13 11 7 3 2 3 4 5 5 6 6 7 7 8 8 9 9 8 8 7
21 19 17 14 12 11 9 8 7 7 6 6 5 4 4 3 2 1 0 2 4 4 3 1 2 5 7 8 9 9 9 8 8 9 9 10 11 12 12 13 14 15 16 18 17 16 14 12 10 8 8 7 7 6 5 7 9 10 11 11 10 8 6
20 18 17 14 13 10 8 7 8 7 6 6 4 4 4 3 2 2 1 3 6 7 6 3 4 6 8 9 11 10 9 8 9 9 10 11 11 12 14 16 17 18 20 22 24 24 23 22 21 21 19 18 16 14 14 17 18 17 16 15 16 17 17
20 18 16 13 12 11 9 8 8 7 6 5 4 5 5 4 3 3 1 3 7 9 8 5 4 7 9 10 11 10 8 9 10 11 11 12 13 15 17 19 19 20 22 24 26 27 26 26 26 25 24 25 25 24 24 25 24 20 19 22 24 25 25
19 17 16 13 12 11 10 10 9 7 6 5 4 5 7 6 4 3 1 2 4 7 8 6 4 8 10 11 11 9 9 10 12 12 12 13 15 16 19 21 22 23 24 25 26 26 26 26 27 26 25 27 28 29 30 28 26 24 24 24 24 22 20
17 16 14 13 12 11 10 9 8 7 6 6 5 6 8 7 5 3 1 1 1 4 6 5 4 7 9 11 10 9 9 11 12 12 13 15 16 17 20 22 23 24 24 24 23 23 23 24 25 25 25 26 27 27 28 26 24 22 20 18 17 18 18
Wind_Direction
186 197 205 209 216 222 228 233 236 235 237 239 236 232 232 239 245 243 243 248 252 256 252 239 246 246 228 223 229 233 242 246 246 249 249 243 240 236 232 227 227 230 232 232 232 233 234 236 236 236 236 236 237 236 235 236 238 238 240 243 245 245 248
168 176 184 189 198 207 217 226 233 234 235 235 233 234 239 243 248 246 246 251 252 251 253 253 255 257 247 230 227 234 242 246 246 245 244 241 238 236 232 228 226 228 230 231 232 233 235 236 237 238 239 239 239 236 236 237 238 238 238 240 243 244 247
165 163 162 162 166 171 182 193 206 220 227 228 230 238 245 244 243 245 247 249 249 249 256 261 259 259 255 241 231 234 241 247 249 248 245 242 239 236 232 226 224 225 227 229 230 231 234 237 238 239 239 241 240 238 238 238 238 239 239 240 242 243 246
164 162 155 151 151 150 152 154 161 180 199 212 222 233 239 240 240 242 246 245 245 250 260 267 264 257 253 248 243 241 245 252 254 251 248 243 240 238 233 228 224 224 225 227 228 229 232 235 238 239 239 241 242 240 240 239 239 240 241 241 243 243 246
165 165 159 155 152 147 142 139 142 155 174 191 204 214 219 227 234 236 239 239 240 249 258 264 264 257 251 248 247 247 249 253 255 252 247 242 240 239 236 232 229 227 225 225 228 229 229 231 234 236 237 239 242 242 241 241 240 241 241 242 243 244 247
169 167 160 155 154 150 144 138 141 147 158 175 188 201 209 214 223 227 230 234 237 245 255 262 264 262 258 254 252 252 250 250 254 255 250 243 238 237 235 233 232 230 226 224 226 228 230 231 232 233 234 236 241 243 242 241 239 237 238 241 243 243 244
171 166 158 153 154 154 150 145 148 152 158 169 177 186 197 205 213 218 225 234 240 245 251 257 262 263 262 260 258 257 253 250 251 253 253 248 242 240 238 234 232 231 229 226 226 228 232 234 233 232 233 235 239 240 241 240 236 233 235 239 242 243 244
173 168 161 157 157 158 159 159 162 169 180 193 197 198 206 217 226 231 238 245 251 254 257 261 265 267 265 262 260 259 256 251 247 248 250 249 247 244 242 239 236 233 232 229 228 229 231 233 234 234 234 235 236 237 239 238 233 229 233 239 243 245 248
178 171 168 167 168 168 170 174 182 196 215 233 240 243 253 260 266 275 281 283 278 274 276 281 283 280 274 268 265 262 259 254 248 245 245 246 247 245 242 243 242 240 238 235 230 229 229 229 230 232 234 235 235 235 237 236 231 229 233 239 243 247 250
183 178 177 178 182 186 186 191 201 212 230 243 243 251 262 268 277 287 289 289 288 285 288 292 294 290 284 280 274 267 263 260 255 249 244 243 244 244 243 243 243 243 243 241 237 231 228 227 228 231 234 236 238 239 237 234 231 231 235 239 244 249 252
187 185 185 187 191 194 194 199 211 225 242 248 252 262 274 284 291 295 293 290 291 291 291 294 294 290 286 288 290 279 269 265 263 259 252 247 246 246 244 243 243 242 241 241 241 236 232 231 232 234 237 239 243 243 239 234 232 233 236 241 247 252 255
190 189 189 191 193 194 195 201 216 235 244 249 272 286 292 298 300 300 300 297 295 293 291 291 291 291 289 290 296 295 284 275 270 266 259 255 254 252 248 245 243 241 238 237 239 239 238 237 234 234 237 241 245 246 242 237 235 236 238 242 249 254 256
191 191 191 192 192 194 198 203 217 231 234 246 276 282 284 292 296 297 298 299 298 294 289 287 286 288 289 291 293 295 295 290 282 272 263 257 255 254 251 247 243 241 238 236 237 238 239 238 236 234 236 239 243 246 244 241 239 239 240 243 248 253 256
191 190 191 193 194 197 202 209 219 219 220 252 272 274 284 295 299 299 299 299 300 297 292 288 286 285 287 289 290 290 290 291 289 281 271 262 257 255 254 249 245 244 241 238 237 237 236 236 235 235 237 240 242 244 246 246 244 244 245 247 250 253 255
192 192 192 194 198 202 208 215 221 215 227 256 266 275 294 305 306 304 301 298 296 295 295 293 290 289 289 289 289 288 287 287 287 286 280 271 262 258 256 253 250 248 245 241 239 239 237 236 236 238 240 242 243 244 246 247 246 245 246 250 253 255 256
194 193 195 199 202 207 213 218 219 220 240 254 261 279 299 309 313 311 305 300 298 297 297 296 293 292 290 289 288 287 288 287 285 284 282 276 270 263 259 256 255 254 250 244 241 241 241 240 239 241 244 245 246 247 247 247 246 245 247 250 253 255 255
196 196 199 202 205 209 216 218 218 225 239 249 262 285 301 308 312 310 304 303 304 303 303 302 300 297 291 288 285 284 285 284 283 282 281 278 276 272 265 260 256 255 252 248 244 242 243 244 244 244 246 248 249 250 251 252 251 250 250 251 252 253 255
199 200 201 203 206 211 217 219 222 229 237 248 268 288 301 307 311 309 305 307 308 307 308 307 304 301 296 291 286 283 282 281 280 280 278 277 276 273 270 266 261 256 253 251 249 246 244 245 245 246 247 249 251 253 255 256 257 258 257 255 253 254 256
202 203 204 205 209 215 220 223 226 231 237 250 272 288 301 308 313 314 310 309 309 307 308 307 305 303 299 295 291 285 280 278 277 277 277 276 274 272 270 270 268 264 259 255 252 250 247 246 245 245 246 248 251 254 257 258 259 260 261 259 257 255 257
204 203 204 207 213 219 222 222 223 226 236 255 277 296 307 311 313 315 310 306 306 306 307 307 306 305 302 299 296 291 284 279 275 274 274 273 272 271 269 267 267 267 266 262 256 252 249 248 247 246 246 247 249 251 254 256 256 258 260 260 258 257 257
204 204 204 207 216 222 222 221 222 225 238 263 289 305 309 310 314 315 310 308 307 306 307 307 307 307 305 300 296 293 290 285 279 274 272 271 270 269 267 265 264 263 264 264 261 257 253 249 247 248 248 249 250 252 252 252 253 255 257 258 258 258 258
207 206 206 211 220 225 224 224 223 226 244 277 301 304 301 305 315 314 310 308 305 305 305 305 305 305 303 300 297 296 296 293 288 283 278 274 270 267 266 265 264 262 261 261 261 261 259 255 250 249 250 250 251 252 252 252 252 252 254 257 258 258 259
214 211 210 214 221 223 220 218 216 222 255 285 291 288 288 301 308 307 304 302 302 302 301 301 304 305 303 302 301 301 301 300 298 296 292 287 278 270 265 263 263 263 261 259 259 259 260 261 259 256 254 254 253 253 253 252 252 252 253 254 256 258 260
214 212 212 213 214 211 208 208 211 225 261 273 266 269 286 299 300 298 297 299 301 301 303 307 310 309 307 309 309 308 308 310 309 308 306 304 299 289 277 268 263 263 262 260 258 257 257 259 261 260 259 256 254 254 254 253 253 253 254 254 255 257 259
206 209 212 212 211 208 206 207 212 228 252 252 246 265 293 299 297 296 300 305 304 305 313 314 303 297 302 313 320 323 323 322 320 316 314 314 312 309 302 290 275 267 266 265 261 258 255 255 257 259 259 257 256 257 258 258 257 256 256 255 254 255 256
201 206 207 204 201 201 202 205 213 228 240 236 242 279 297 296 295 300 309 308 302 312 323 312 303 308 320 324 328 332 327 321 317 315 316 318 318 318 317 309 295 279 272 271 268 262 255 252 253 256 257 257 258 258 259 260 260 259 258 258 257 256 255
199 202 203 198 196 198 200 202 210 224 232 234 253 288 296 294 293 308 320 304 292 308 313 308 313 329 340 333 331 332 323 318 321 323 322 323 323 321 318 310 301 288 278 277 277 272 261 252 249 255 258 258 258 259 259 260 261 260 260 260 259 258 257
194 195 195 193 195 199 199 202 212 225 234 238 259 286 295 292 280 299 320 307 297 304 306 311 320 328 333 337 340 334 323 324 333 337 334 329 322 318 315 309 297 284 277 278 275 268 266 258 251 254 260 259 259 260 261 262 262 261 261 261 261 260 260
191 194 194 192 195 198 197 204 217 226 234 236 253 281 298 298 280 298 318 306 303 305 307 315 328 332 338 345 344 338 338 347 356 356 351 344 330 318 317 316 304 282 272 275 270 255 251 250 247 252 258 258 257 260 264 266 267 266 265 264 262 260 259
191 196 196 194 195 195 197 209 218 221 228 237 256 280 302 311 304 318 316 306 308 315 318 333 344 343 345 351 360 8 8 9 8 2 359 0 355 344 336 333 326 304 275 268 270 261 249 240 235 237 244 250 255 261 265 269 270 271 271 269 264 260 257
194 197 197 195 193 192 199 210 214 216 227 241 258 279 305 308 291 304 311 314 326 336 342 351 348 345 354 9 25 27 20 15 7 359 9 28 31 31 28 13 1 352 316 274 265 266 264 256 249 245 245 250 256 261 266 271 275 279 282 279 273 266 261
193 197 198 196 194 195 201 207 209 215 226 240 257 276 293 286 281 296 308 321 347 355 351 350 344 354 20 38 44 38 29 22 12 9 32 52 51 49 49 45 42 44 44 37 9 286 272 272 273 274 273 273 274 277 281 286 292 298 302 300 295 291 284
194 197 198 198 198 198 202 207 208 212 223 236 252 268 271 272 288 303 312 346 13 14 2 350 3 42 59 60 57 48 39 31 27 34 54 64 62 60 57 57 58 59 59 58 55 51 42 346 292 286 292 296 300 304 309 317 328 338 344 345 349 348 339
196 197 196 198 201 200 202 208 208 208 218 229 246 262 260 265 289 291 125 51 31 28 21 19 72 82 80 75 68 57 48 45 49 58 67 70 69 66 63 66 68 66 67 68 66 67 69 69 70 71 65 56 46 37 41 49 48 45 42 40 43 47 50
196 196 196 198 200 202 204 206 206 209 217 226 241 251 247 247 250 213 154 53 36 33 29 46 95 95 89 85 76 63 58 61 67 72 74 73 75 78 78 77 75 72 73 74 73 73 74 75 76 79 79 78 75 73 78 79 74 68 66 69 77 82 83
193 195 197 198 198 200 203 201 203 210 220 230 238 234 226 225 220 198 147 51 37 33 29 38 93 105 100 92 83 73 71 78 81 82 84 85 88 90 87 83 79 76 76 77 77 77 76 77 78 79 81 84 84 82 80 79 77 77 80 85 88 87 84
191 192 195 197 197 199 199 199 204 215 225 229 223 211 208 207 200 180 140 54 30 28 24 28 78 107 104 98 94 91 92 94 95 95 97 97 98 97 95 92 88 83 79 78 79 79 79 79 80 81 81 83 84 83 82 83 86 91 93 91 88 84 84
190 191 193 196 197 199 201 203 210 221 222 211 197 196 198 194 181 170 194 243 336 23 22 22 63 106 110 108 107 107 108 108 108 108 107 105 105 105 103 100 96 91 87 83 81 81 82 82 82 83 81 81 82 84 87 92 96 98 97 92 87 87 91